Regional Weather Roundup
Issued by NWS Green Bay, WI

Home | Current Version | Previous Version | Graphics & Text | Print | Product List | Glossary Off
Versions: 1 2 3 4 5 6 7 8 9 10 11 12 13 14 15 16 17 18 19 20 21 22 23 24 25 26 27 28 29 30 31 32 33 34 35 36 37 38 39 40 41 42 43 44 45 46 47 48 49 50

000
ASUS43 KGRB 181259
RWRGRB

NORTH-CENTRAL AND NORTHEAST WISCONSIN REGIONAL WEATHER ROUNDUP
NATIONAL WEATHER SERVICE GREEN BAY WI
800 AM CDT FRI APR 18 2014

WIZ005-009-010>012-018-019-181400-
NORTH CENTRAL WISCONSIN

CITY           SKY/WX    TMP DP  RH WIND       PRES   REMARKS
IRONWOOD       CLOUDY    23  18  80 SW3       30.33R
MANITOWISH WTR NOT AVBL
ARBOR VITAE    NOT AVBL
EAGLE RIVER    NOT AVBL
LAND O LAKES   NOT AVBL
RHINELANDER    SUNNY     28  22  78 N3        30.33R
PHILLIPS       NOT AVBL
ANTIGO         NOT AVBL
TOMAHAWK       NOT AVBL
MERRILL        NOT AVBL
$$

WIZ013-073-181400-
NORTHEAST WISCONSIN

CITY           SKY/WX    TMP DP  RH WIND       PRES   REMARKS
IRON MOUNTAIN  CLOUDY    33  23  66 NW8       30.31R
MARINETTE      CLOUDY    34  25  69 CALM      30.35S
$$

WIZ017-030-035>037-045-181400-
CENTRAL WISCONSIN

CITY           SKY/WX    TMP DP  RH WIND       PRES   REMARKS
MEDFORD        NOT AVBL
WAUSAU         MOSUNNY   33  26  75 CALM      30.34R
MOSINEE        SUNNY     34  27  75 NW5       30.36R
MARSHFIELD     SUNNY     33  27  78 NW7       30.35R
WISC RAPIDS    SUNNY     35  26  69 NW5       30.38R
STEVENS POINT  NOT AVBL
WAUPACA        NOT AVBL
SHAWANO        NOT AVBL
CLINTONVILLE   NOT AVBL
$$

WIZ038-039-048-051-181400-
FOX VALLEY

CITY           SKY/WX    TMP DP  RH WIND       PRES   REMARKS
NWS GREEN BAY  CLOUDY    36  26  67 N8        30.37R
APPLETON       PTSUNNY   34  25  69 N6        30.36R
OSHKOSH        CLOUDY    36  26  67 N8        30.35R
FOND DU LAC    CLOUDY    36  30  79 N5        30.35R
$$

WIZ022-050-052-181400-
EAST CENTRAL WISCONSIN

CITY           SKY/WX    TMP DP  RH WIND       PRES   REMARKS
STURGEON BAY   CLOUDY    34  27  75 NW8       30.36R
MANITOWOC      NOT AVBL
SHEBOYGAN      CLOUDY    37  30  75 N8        30.35R
$$

LMZ563-521-522-541>543-181400-
LAKESHORE

STATION/POSITION TIME  TEMP    WIND        PRES    VSBY  WAVE
                       AIR SEA DIR/SP/G                  HT/PER
                 (UTC) (F)     (DEG/KT/KT) (MB)    (MI)  (FT/S)
SHEBOYGAN LKSHOR 1200   38     350/ 12/ 13 1028.0R
KEWAUNEE LKSHORE 1200   36     340/  4/  6 1028.2R
NORTHPORT PIER   1200   33     310/  3/  4 1027.4R
SISTER BAY LKSHO 1200   34        CALM       N/A
MENOMINEE LKSHOR 1200   34     300/  5/  5 1028.4R
$$



USA.gov is the U.S. government's official web portal to all federal, state and local government web resources and services.